EW7158 Weather Reports


time (UTC)temp
F
wind
direction
speed
knots
gust
knots
rain 1hr
in
rain 24hr
in
rain mn
in
humidity
%
barometer
mb
20210920044534 53 90 0.0 0.0 0.00 1.12 1.04 100 1016.4
20210920043618 53 90 0.0 0.0 0.00 1.12 1.04 100 1016.4
20210920042619 53 90 0.9 1.7 0.00 1.12 1.04 100 1016.0
20210920041618 53 90 0.0 0.0 0.00 1.12 1.04 100 1016.0
20210920040617 53 90 0.0 1.7 0.00 1.12 1.04 100 1015.7
20210920035618 53 90 0.0 1.7 0.00 1.12 1.04 100 1015.7
20210920034617 53 90 0.9 1.7 0.00 1.12 1.04 100 1015.7
20210920033618 53 90 0.0 0.0 0.00 1.12 1.04 100 1015.7
20210920032618 53 90 0.0 0.0 0.00 1.12 1.04 100 1015.4
20210920031617 53 90 0.0 0.0 0.00 1.12 1.04 100 1015.0
20210920030633 53 90 0.0 0.0 0.00 1.13 1.04 100 1015.0
20210920025718 53 90 0.0 1.7 0.00 1.13 1.04 100 1014.7
20210920024735 53 90 0.9 1.7 0.00 1.13 1.04 100 1014.7
20210920024634 53 90 0.9 1.7 0.00 1.13 1.04 100 1014.7
20210920023732 53 90 0.0 0.0 0.00 1.13 1.04 100 1014.7
20210920022819 53 270 0.0 1.7 0.00 1.13 1.04 100 1014.3
20210920021835 53 270 0.0 0.0 0.00 1.13 1.04 100 1014.3
20210920021719 53 270 0.9 1.7 0.00 1.13 1.04 100 1014.3
20210920020717 53 270 0.0 0.9 0.00 1.13 1.04 100 1014.3
20210920015734 53 90 0.0 0.0 0.00 1.14 1.04 100 1014.0
20210920014718 54 270 0.0 1.7 0.00 1.14 1.04 100 1014.0
20210920013817 54 90 0.9 1.7 0.00 1.14 1.04 100 1014.0
20210920012818 54 278 0.0 0.9 0.00 1.14 1.04 100 1014.0
20210920011817 54 270 0.0 0.0 0.00 1.14 1.04 100 1014.0
20210920010818 54 270 0.9 1.7 0.00 1.14 1.04 100 1013.6
20210920005818 54 270 0.0 0.0 0.00 1.14 1.04 100 1013.7
20210920004917 54 270 0.0 1.7 0.00 1.14 1.04 100 1013.6
20210920003933 54 270 0.9 1.7 0.00 1.14 1.04 100 1013.6
20210920003833 54 270 0.0 1.7 0.00 1.14 1.04 100 1013.6
20210920002818 54 270 0.0 1.7 0.00 1.15 1.04 100 1013.3
20210920001820 54 270 0.0 1.7 0.00 1.15 1.04 100 1013.0
20210920000821 55 292 0.0 0.0 0.00 1.15 1.04 100 1013.0
20210919235917 55 292 0.0 0.0 0.00 1.15 1.04 100 1013.0
20210919235836 55 292 0.0 0.0 0.00 1.15 1.04 100 1013.0
20210919234917 54 292 0.0 0.0 0.00 1.15 1.04 100 1013.0
20210919233918 54 22 0.0 0.0 0.82 1.15 1.04 100 1013.0
20210919232933 54 22 0.0 0.0 0.82 1.15 1.04 100 1013.0
20210919232020 54 22 0.0 0.0 0.82 1.15 1.04 100 1013.0
20210919231017 54 22 0.9 1.7 0.82 1.15 1.04 100 1013.0
20210919230018 54 22 0.9 1.7 0.82 1.15 1.04 100 1013.0
20210919225017 54 22 0.0 0.0 0.82 1.15 1.04 100 1013.0
20210919224018 55 22 0.0 0.9 0.00 0.34 0.22 100 1013.0
20210919223035 54 22 0.0 0.9 0.01 0.35 0.22 100 1013.0
20210919222933 54 22 0.0 0.0 0.01 0.35 0.22 100 1013.0
20210919221917 54 22 0.0 1.7 0.01 0.35 0.22 100 1013.0
20210919220917 53 315 0.0 0.0 0.01 0.35 0.22 100 1013.0
20210919215919 53 315 0.0 0.0 0.01 0.35 0.22 100 1013.0
20210919214933 53 292 0.0 0.9 0.01 0.36 0.22 100 1012.6
20210919214018 54 360 0.0 0.0 0.01 0.36 0.22 100 1012.6
20210919213918 54 360 0.0 0.0 0.01 0.36 0.22 100 1012.6
20210919213017 54 45 0.0 0.0 0.01 0.35 0.21 100 1012.6
20210919212018 54 33 0.0 1.7 0.01 0.35 0.21 100 1012.3
20210919211019 53 45 0.0 1.7 0.01 0.35 0.21 100 1012.3
20210919210036 53 22 0.0 1.7 0.01 0.35 0.21 100 1012.1
20210919205018 53 22 0.0 1.7 0.01 0.35 0.21 100 1011.9
20210919204032 53 22 0.0 1.7 0.01 0.36 0.21 100 1011.9
20210919203018 53 22 0.0 1.7 0.00 0.35 0.20 100 1011.9
20210919202017 54 337 0.9 2.6 0.00 0.35 0.20 100 1011.8
20210919201018 54 360 0.0 1.7 0.01 0.35 0.20 100 1011.5
20210919200035 54 292 0.0 1.7 0.01 0.36 0.20 100 1011.5
20210919195018 54 22 0.0 0.0 0.01 0.36 0.20 100 1011.5
20210919194033 53 337 0.0 0.9 0.01 0.36 0.20 100 1011.2
20210919193918 53 349 0.0 0.0 0.01 0.36 0.20 100 1011.2
20210919192919 54 360 0.0 0.9 0.01 0.36 0.20 100 1010.9
20210919191916 53 22 0.9 1.7 0.02 0.36 0.20 100 1010.9
20210919190919 53 22 0.0 1.7 0.01 0.36 0.19 100 1010.9
20210919190017 53 360 0.0 1.7 0.01 0.36 0.19 100 1010.9
20210919185917 53 360 0.0 1.7 0.01 0.36 0.19 100 1010.9
20210919184919 53 24 0.0 2.6 0.01 0.36 0.19 100 1010.5
20210919184016 53 45 0.0 1.7 0.01 0.36 0.19 100 1010.5
20210919183020 53 337 0.0 0.0 0.01 0.37 0.19 100 1010.2
20210919182019 53 270 0.0 0.0 0.00 0.36 0.18 100 1010.2
20210919181917 53 341 0.0 0.9 0.00 0.36 0.18 100 1010.2
20210919180918 53 360 0.0 0.0 0.01 0.36 0.18 100 1009.8
20210919175917 53 360 0.0 0.0 0.01 0.36 0.18 100 1009.8
20210919174934 53 337 0.0 0.0 0.01 0.36 0.18 100 1009.5
20210919173919 52 337 0.0 0.0 0.01 0.37 0.18 100 1009.5
20210919173817 52 337 0.0 0.0 0.01 0.37 0.18 100 1009.5
20210919172819 52 270 0.0 0.0 0.01 0.37 0.18 100 1009.5
20210919171834 52 270 0.0 0.0 0.02 0.37 0.18 100 1009.2
20210919170818 52 270 0.0 0.0 0.01 0.37 0.17 100 1009.2
20210919165834 52 360 0.0 0.0 0.01 0.37 0.17 100 1008.8
20210919164832 52 360 0.0 0.0 0.01 0.37 0.17 100 1008.8
20210919164716 52 360 0.0 0.0 0.01 0.37 0.17 100 1008.8
20210919163719 52 360 0.0 0.0 0.01 0.37 0.17 100 1008.5
20210919162737 52 360 0.0 0.9 0.01 0.38 0.17 100 1008.5
20210919161833 52 337 0.0 0.0 0.01 0.37 0.16 100 1008.1
20210919160917 52 337 0.0 0.0 0.01 0.38 0.16 100 1008.1
20210919155918 52 337 0.0 0.0 0.01 0.38 0.16 100 1008.1
20210919154917 52 337 0.0 0.0 0.01 0.38 0.16 100 1007.8
20210919153918 52 337 0.0 0.0 0.02 0.38 0.16 100 1007.8
20210919152933 51 337 0.0 0.0 0.02 0.39 0.16 100 1007.8
20210919152817 51 337 0.0 0.0 0.02 0.39 0.16 100 1007.8
20210919152719 51 337 0.0 0.0 0.02 0.39 0.16 100 1007.8
20210919151735 51 337 0.0 0.0 0.01 0.38 0.15 100 1007.4
20210919150819 51 337 0.0 0.0 0.01 0.39 0.15 100 1007.4
20210919145818 51 337 0.0 0.0 0.01 0.39 0.15 100 1007.4
20210919145717 51 337 0.0 0.0 0.01 0.39 0.15 100 1007.4
20210919145617 51 337 0.0 0.0 0.01 0.39 0.15 100 1007.4
20210919144618 51 337 0.0 0.0 0.01 0.38 0.14 100 1007.1
20210919144518 51 337 0.0 0.0 0.01 0.38 0.14 100 1007.1
20210919143518 51 337 0.0 0.0 0.01 0.39 0.14 100 1007.1
20210919142617 51 337 0.0 0.0 0.01 0.39 0.14 100 1007.0
20210919141618 51 337 0.0 0.0 0.02 0.40 0.14 100 1006.8
20210919140618 51 337 0.0 0.0 0.02 0.40 0.14 100 1006.8
20210919135618 51 337 0.0 0.0 0.02 0.40 0.14 100 1006.4
20210919134619 51 337 0.0 0.0 0.01 0.40 0.13 100 1006.0
20210919133632 51 337 0.0 0.0 0.01 0.40 0.13 100 1006.0
20210919132634 51 22 0.0 0.0 0.02 0.41 0.13 100 1006.0
20210919131719 51 360 0.0 0.0 0.01 0.40 0.12 100 1006.0
20210919130717 51 360 0.0 0.0 0.01 0.40 0.12 100 1005.7
20210919125717 51 360 0.0 0.9 0.02 0.41 0.12 100 1005.7
20210919124717 51 360 0.0 0.0 0.02 0.42 0.12 100 1005.4
20210919123718 51 22 0.0 0.0 0.02 0.42 0.12 100 1005.4
20210919122718 51 22 0.0 1.7 0.01 0.41 0.11 100 1005.4
20210919121719 51 24 0.0 1.7 0.02 0.41 0.11 100 1005.4
20210919120735 51 67 0.0 0.0 0.02 0.41 0.11 100 1005.4
20210919115718 51 67 0.0 0.0 0.01 0.40 0.10 100 1005.0
20210919115618 51 67 0.0 0.0 0.01 0.40 0.10 100 1005.0
20210919114617 51 67 0.0 0.0 0.02 0.40 0.10 100 1005.0
20210919114516 51 67 0.0 0.0 0.02 0.40 0.10 100 1005.0
20210919113517 51 67 0.0 0.0 0.02 0.40 0.10 100 1004.7
20210919112518 51 67 0.0 0.0 0.02 0.40 0.10 100 1004.7
20210919111519 51 67 0.0 0.0 0.02 0.39 0.09 100 1004.7
20210919110532 51 67 0.0 0.9 0.02 0.39 0.09 100 1004.7
20210919105518 51 67 0.0 0.0 0.01 0.38 0.08 100 1004.4
20210919104534 51 45 0.0 0.0 0.02 0.38 0.08 100 1004.4
20210919103617 51 45 0.0 0.0 0.02 0.38 0.08 100 1004.0
20210919102618 51 45 0.0 0.0 0.02 0.38 0.08 100 1004.0
20210919101619 51 45 0.0 0.0 0.01 0.37 0.07 100 1004.0
20210919100617 51 45 0.0 0.0 0.02 0.37 0.07 100 1004.0
20210919100535 51 45 0.0 0.0 0.02 0.37 0.07 100 1004.0
20210919095517 51 360 0.0 0.0 0.02 0.37 0.07 100 1004.0
20210919095419 51 360 0.0 0.0 0.02 0.37 0.07 100 1004.0
20210919094517 51 337 0.0 0.0 0.02 0.36 0.06 100 1004.0
20210919093535 51 337 0.0 0.0 0.02 0.36 0.06 100 1004.0
20210919092519 51 337 0.0 0.0 0.02 0.36 0.06 100 1004.0
20210919091517 51 360 0.0 0.0 0.03 0.36 0.05 100 1004.0
20210919090519 51 360 0.0 0.0 0.02 0.35 0.05 100 1004.0
20210919085518 51 360 0.0 0.9 0.03 0.35 0.05 100 1003.7
20210919084534 51 298 0.0 0.0 0.02 0.34 0.04 100 1003.3
20210919083619 51 360 0.0 0.0 0.02 0.34 0.04 100 1003.3
20210919082717 51 360 0.0 0.0 0.03 0.34 0.04 100 1003.3
20210919081816 51 314 0.0 1.7 0.03 0.34 0.04 100 1003.3
20210919080818 51 292 0.0 0.0 0.03 0.33 0.03 100 1003.3
20210919075832 51 360 0.0 1.7 0.03 0.33 0.03 100 1003.3
20210919074917 52 45 0.0 1.7 0.02 0.32 0.02 100 1003.3
20210919073933 52 22 0.0 0.0 0.03 0.32 0.02 100 1003.3
20210919073019 52 270 0.0 0.0 0.03 0.32 0.02 100 1002.9
20210919072016 52 270 0.0 0.0 0.03 0.31 0.01 100 1002.9
20210919071018 52 270 0.0 0.0 0.03 0.31 0.00 100 1002.9
20210919070116 52 90 0.0 0.0 0.03 0.30 0.00 100 1002.6
20210919065108 52 270 0.0 0.0 0.04 0.30 0.30 100 1002.6
20210919064107 52 270 0.0 0.0 0.03 0.28 0.28 100 1002.6
20210919064009 52 270 0.0 0.0 0.03 0.28 0.28 100 1002.6
20210919063108 52 270 0.0 0.0 0.04 0.28 0.28 100 1002.6
20210919062108 52 270 0.0 0.0 0.04 0.28 0.28 100 1002.6
20210919061109 52 270 0.0 0.9 0.04 0.28 0.28 100 1002.6
20210919060207 52 270 0.0 0.9 0.04 0.27 0.27 100 1002.6
20210919055210 52 270 0.0 0.0 0.03 0.26 0.26 100 1002.6
20210919054224 52 270 0.9 1.7 0.04 0.26 0.26 100 1002.3
20210919053308 52 270 0.0 1.7 0.03 0.25 0.25 100 1002.3
20210919052407 52 270 0.9 1.7 0.02 0.24 0.24 100 1001.9
20210919051425 52 270 0.0 0.9 0.02 0.24 0.24 100 1001.9
20210919050409 52 270 0.9 1.7 0.01 0.23 0.23 100 1001.9
20210919045508 52 270 0.9 1.7 0.01 0.23 0.23 100 1001.9